"Pseudo-MPEC" for CCX7EV2

Created 2025 Feb 6 3:31:10 UT using Find_Orb

Click here for an explanation of pseudo-MPECs

 
 Astrometry: 
     CCX7EV2*1C2025 02 04.25536809 05 33.828-01 59 12.80   ~2482 20.68GVNEOCPG96
     CCX7EV2 1C2025 02 04.25967409 05 35.858-01 58 21.11   ~2482 20.47GVNEOCPG96
     CCX7EV2 1C2025 02 04.26827109 05 39.908-01 56 38.94   ~2482 20.90GVNEOCPG96
     CCX7EV2 KC2025 02 04.30875309 05 58.682-01 48 37.19   ~248V 21.35GVNEOCPI52
     CCX7EV2 KC2025 02 04.31077209 05 59.582-01 48 13.68   ~248V       VNEOCPI52
     CCX7EV2 KC2025 02 04.31279809 06 00.544-01 47 49.24   ~248V 21.16GVNEOCPI52
     CCX7EV2 KC2025 02 04.31482709 06 01.447-01 47 26.16   ~248V 20.66GVNEOCPI52
     CCX7EV2 IC2025 02 04.84244709 10 25.73 -00 15 04.2    ~252l 20.6 GVNEOCPL01
     CCX7EV2 pC2025 02 04.84895509 10 28.24 -00 14 01.2    ~252l 20.9 GVNEOCPL01
     CCX7EV2 KB2025 02 04.93615809 11 03.18 -00 00 26.8    ~2502 21.1 GVNEOCPI93
     CCX7EV2 KB2025 02 04.94564609 11 06.56 +00 01 00.9    ~2502 20.4 GVNEOCPI93
     CCX7EV2 KB2025 02 04.95498809 11 09.93 +00 02 25.6    ~2502 20.6 GVNEOCPI93
     CCX7EV2 KB2025 02 04.98101509 11 17.626+00 06 18.00   ~251V       WNEOCP204
     CCX7EV2 KB2025 02 04.99758609 11 23.443+00 08 47.26   ~251V 20.6 GWNEOCP204
     CCX7EV2 MC2025 02 05.07684109 11 50.45 +00 20 28.5    ~252V 21.0 GVNEOCPL01
     CCX7EV2 MC2025 02 05.07897509 11 51.18 +00 20 47.0    ~252V 20.7 GVNEOCPL01
     CCX7EV2 MC2025 02 05.08117809 11 51.96 +00 21 06.5    ~252V 20.8 GVNEOCPL01
     CCX7EV2 KC2025 02 05.24324009 13 06.064+00 44 30.23   ~256V 21.69GVNEOCPI52
     CCX7EV2 KC2025 02 05.24633409 13 07.057+00 44 55.64   ~256V 21.06GVNEOCPI52
     CCX7EV2 KC2025 02 05.24943109 13 08.008+00 45 21.10   ~256V 20.79GVNEOCPI52
     CCX7EV2 KC2025 02 05.25252309 13 08.944+00 45 46.37   ~256V 20.76GVNEOCPI52

Station data:
(204) Schiaparelli Observatory  (N45.868292 E8.769720)  Italy.  Observer L.
   Buzzi. 0.84-m f/3.5 reflector + CCD.
(G96) Mt. Lemmon Survey  (N32.442729 W110.788720)  US/Arizona.  Observer E.
   J. Christensen.  + 10K CCD.
(I52) Steward Observatory, Mt. Lemmon Station  (N32.442570 W110.788920)
   US/Arizona.  Observers T. A. Pruyne, B. M. Africano, E. J. Christensen, G.
   A. Farneth, D. C. Fuls, A. R. Gibbs, A. D. Grauer, H. Gröller, J. A.
   Johnson, R. A. Kowalski, S. M. Larson, G. J. Leonard, D. Rankin, R. L.
   Seaman, F. C. Shelly, K. W. Wierzchoś. 1.0-m prime focus + CCD.
(I93) St Pardon de Conques  (N44.558670 W0.202960)  France.  Observers F.
   Losse, W. D'Anna. Measurer F. Losse. 0.40-m f/3.7 reflector + CCD.
(L01) Višnjan Observatory, Tičan  (N45.290897 E13.749300)  Croatia.
   Observers K. Korlević, D. Pujagic, V. Dobos. Measurers D. Pujagic, K.
   Korlević. 1.0-m f/2.9 reflector + CCD.

Orbital elements:  CCX7EV2
   Perihelion 2024 Dec 20.03810 +/- 0.0243 TT =  0:54:52 (JD 2460664.53810)
Epoch 2025 Feb  5.0 TT = JDT 2460711.5   Earth MOID: 0.0063   Ve: 0.0642
M  18.28856967 +/- 0.07             Ma: 0.0486                   AutoNEOCP
n   0.38943421 +/- 0.00138          Peri.  211.23974 +/- 0.39
a   1.85714856 +/- 0.00439          Node   216.00931 +/- 0.38
e   0.5771230 +/- 0.00115           Incl.    0.62884 +/- 0.0015
P   2.531/924.401d         H 27.19  G  0.15   U  8.3
q 0.78534539 +/- 0.000279    Q 2.92895172 +/- 0.00906     (J2000 ecliptic)
From 21 observations 2025 Feb. 4-5 (23.9 hr); mean residual 0".31
Residuals in arcseconds: 
250204 G96  .17+  .36+    250204 L01  .18-  .41-    250205 L01  .19+  .36-    
250204 G96  .02+  .26+    250204 L01  .58-  .81+    250205 L01  .18-  .43-    
250204 G96  .02-  .72-    250204 I93  .65+  .21-    250205 L01  .17-  .08-    
250204 I52  .10+  .09+    250204 I93  .23-  .60+    250205 I52  .09-  .08-    
250204 I52  .28-  .18-    250204 I93  .09-  .03+    250205 I52  .35+  .02-    
250204 I52  .24+  .41+    250204 204  .15+  .09-    250205 I52  .20+  .10+    
250204 I52  .13-  .37-    250204 204  .12-  .10+    250205 I52  .12-  .10+    

Ephemerides (geocentric):
Date (UTC) HH   RA             Dec           delta  r     elong  mag " sig PA
---- --------  ------------   ------------  ------ ------ -----  --- --------
2025 02 06 04  09 17 59.089   +02 34 05.29  .05120 1.0361 166.9 21.6 .284  63
2025 02 06 05  09 18 10.540   +02 38 14.03  .05153 1.0364 167.0 21.6 .302  61
2025 02 06 06  09 18 21.846   +02 42 19.61  .05187 1.0368 167.1 21.6 .320  59
2025 02 06 07  09 18 33.008   +02 46 22.09  .05220 1.0371 167.2 21.6 .339  57
2025 02 06 08  09 18 44.029   +02 50 21.53  .05254 1.0375 167.2 21.6 .358  56
2025 02 06 09  09 18 54.913   +02 54 17.97  .05287 1.0378 167.3 21.6 .378  54
2025 02 06 10  09 19 05.661   +02 58 11.48  .05321 1.0382 167.4 21.6 .398  53
2025 02 06 11  09 19 16.276   +03 02 02.12  .05355 1.0385 167.5 21.6 .418  52
2025 02 06 12  09 19 26.760   +03 05 49.92  .05388 1.0389 167.5 21.7 .439  51
2025 02 06 13  09 19 37.117   +03 09 34.95  .05422 1.0392 167.6 21.7 .459  50
2025 02 06 14  09 19 47.348   +03 13 17.26  .05456 1.0396 167.7 21.7 .480  49
2025 02 06 15  09 19 57.455   +03 16 56.88  .05489 1.0399 167.8 21.7 .501  48
2025 02 06 16  09 20 07.440   +03 20 33.88  .05523 1.0403 167.8 21.7 .523  48
2025 02 06 17  09 20 17.307   +03 24 08.30  .05557 1.0406 167.9 21.7 .544  47
2025 02 06 18  09 20 27.056   +03 27 40.18  .05590 1.0410 168.0 21.7 .566  46
2025 02 06 19  09 20 36.691   +03 31 09.57  .05624 1.0413 168.1 21.7 .587  46
2025 02 06 20  09 20 46.212   +03 34 36.52  .05658 1.0417 168.1 21.7 .609  45
2025 02 06 21  09 20 55.623   +03 38 01.05  .05692 1.0420 168.2 21.8 .631  45
2025 02 06 22  09 21 04.924   +03 41 23.23  .05725 1.0424 168.3 21.8 .652  44
2025 02 06 23  09 21 14.118   +03 44 43.07  .05759 1.0427 168.3 21.8 .674  44
2025 02 07 00  09 21 23.206   +03 48 00.64  .05793 1.0431 168.4 21.8 .696  43
2025 02 07 01  09 21 32.191   +03 51 15.96  .05827 1.0434 168.5 21.8 .718  43
2025 02 07 02  09 21 41.074   +03 54 29.07  .05861 1.0438 168.5 21.8 .740  43
2025 02 07 03  09 21 49.857   +03 57 40.02  .05894 1.0441 168.6 21.8 .762  42
2025 02 07 04  09 21 58.541   +04 00 48.83  .05928 1.0445 168.7 21.8 .784  42
2025 02 07 05  09 22 07.128   +04 03 55.54  .05962 1.0448 168.7 21.8 .806  42
2025 02 07 06  09 22 15.620   +04 07 00.19  .05996 1.0452 168.8 21.8 .828  41
2025 02 07 07  09 22 24.019   +04 10 02.81  .06030 1.0455 168.9 21.9 .850  41
2025 02 07 08  09 22 32.325   +04 13 03.44  .06064 1.0459 168.9 21.9 .872  41
2025 02 07 09  09 22 40.540   +04 16 02.10  .06098 1.0462 169.0 21.9 .895  40
2025 02 07 10  09 22 48.667   +04 18 58.83  .06132 1.0466 169.0 21.9 .917  40
2025 02 07 11  09 22 56.705   +04 21 53.66  .06166 1.0469 169.1 21.9 .939  40
2025 02 07 12  09 23 04.657   +04 24 46.62  .06200 1.0473 169.2 21.9 .961  40
2025 02 07 13  09 23 12.525   +04 27 37.75  .06233 1.0476 169.2 21.9 .982  40
2025 02 07 14  09 23 20.308   +04 30 27.06  .06267 1.0480 169.3 21.9 1.00  39
2025 02 07 15  09 23 28.009   +04 33 14.58  .06301 1.0483 169.3 21.9 1.03  39
2025 02 07 16  09 23 35.629   +04 36 00.36  .06335 1.0487 169.4 22.0 1.05  39
2025 02 07 17  09 23 43.170   +04 38 44.41  .06369 1.0491 169.5 22.0 1.07  39
2025 02 07 18  09 23 50.632   +04 41 26.76  .06403 1.0494 169.5 22.0 1.09  39
2025 02 07 19  09 23 58.016   +04 44 07.43  .06437 1.0498 169.6 22.0 1.11  39
2025 02 07 20  09 24 05.324   +04 46 46.46  .06472 1.0501 169.6 22.0 1.13  38
2025 02 07 21  09 24 12.558   +04 49 23.87  .06506 1.0505 169.7 22.0 1.16  38
2025 02 07 22  09 24 19.717   +04 51 59.68  .06540 1.0508 169.7 22.0 1.18  38
2025 02 07 23  09 24 26.804   +04 54 33.92  .06574 1.0512 169.8 22.0 1.20  38
2025 02 08 00  09 24 33.819   +04 57 06.60  .06608 1.0515 169.9 22.0 1.22  38
2025 02 08 01  09 24 40.764   +04 59 37.77  .06642 1.0519 169.9 22.0 1.24  38
2025 02 08 02  09 24 47.639   +05 02 07.43  .06676 1.0522 170.0 22.0 1.26  38
2025 02 08 03  09 24 54.446   +05 04 35.60  .06710 1.0526 170.0 22.1 1.28  38